Date String (YYYY-MM-DD hh:mm:ss) UTC,Instrument flags,Ambient pressure (hPa),Sample flow (lpm),Bypass flow (lpm),Sample temperature (°C),Ambient temperature (°C),ASC tube jacket temperature (°C),LED temperature (°C),Box temperature (°C),Sample RH (%),Span deviation,Mass concentration (μg/m³),Mass concentration (μg/m³),Mass concentration (μg/m³)
DateTimeUTC,F1_M11,P_M11,Q1_M11,Q2_M11,T1_M11,T2_M11,T3_M11,T4_M11,T5_M11,U1_M11,ZSPAN_M11,X0_M11,X2_M11,X1_M11
2021-12-17 00:00:00,,0817.9,5.00,0.00,26.8,25.8,00.0,35.8,28.5,06.4,0000.0,0018.65,0004.34,0002.41
2021-12-17 00:01:00,,0818.0,5.00,0.00,26.8,25.8,00.0,35.8,28.5,06.4,0000.0,0018.74,0004.31,0002.40
2021-12-17 00:02:00,,0818.0,5.00,0.00,26.7,25.8,00.0,35.7,28.5,06.4,0000.0,0018.24,0004.26,0002.38
2021-12-17 00:03:00,,0818.0,5.00,0.00,26.7,25.8,00.0,35.7,28.5,06.4,0000.0,0018.22,0004.20,0002.36
2021-12-17 00:04:00,,0818.0,4.99,0.00,26.7,25.8,00.0,35.7,28.5,06.4,0000.0,0019.03,0004.20,0002.34
2021-12-17 00:05:00,,0818.0,5.02,0.00,26.7,25.8,00.0,35.7,28.5,06.4,0000.0,0018.61,0004.23,0002.33
2021-12-17 00:06:00,,0818.0,5.00,0.00,26.7,25.8,00.0,35.7,28.5,06.4,0000.0,0018.64,0004.26,0002.33
2021-12-17 00:07:00,,0818.0,4.99,0.00,26.7,25.8,00.0,35.7,28.5,06.3,0000.0,0019.55,0004.27,0002.32
2021-12-17 00:08:00,,0818.0,5.00,0.00,26.7,25.8,00.0,35.7,28.5,06.3,0000.0,0019.34,0004.27,0002.31
2021-12-17 00:09:00,,0818.0,5.00,0.00,26.7,25.8,00.0,35.7,28.5,06.4,0000.0,0019.37,0004.36,0002.31
2021-12-17 00:10:00,,0818.1,5.01,0.00,26.7,25.8,00.0,35.7,28.5,06.4,0000.0,0019.88,0004.40,0002.31
2021-12-17 00:11:00,,0818.0,5.00,0.00,26.7,25.7,00.0,35.7,28.5,06.4,0000.0,0020.47,0004.40,0002.30
2021-12-17 00:12:00,,0818.0,5.01,0.00,26.7,25.7,00.0,35.7,28.5,06.4,0000.0,0020.57,0004.36,0002.30
2021-12-17 00:13:00,,0818.0,5.01,0.00,26.7,25.7,00.0,35.7,28.5,06.4,0000.0,0020.87,0004.36,0002.30
2021-12-17 00:14:00,,0818.0,4.99,0.00,26.7,25.7,00.0,35.7,28.5,06.3,0000.0,0020.70,0004.42,0002.33
2021-12-17 00:15:00,,0818.0,5.00,0.00,26.7,25.7,00.0,35.7,28.5,06.3,0000.0,0021.36,0004.45,0002.35
2021-12-17 00:16:00,,0818.0,5.01,0.00,26.7,25.7,00.0,35.6,28.5,06.3,0000.0,0021.61,0004.39,0002.33
2021-12-17 00:17:00,,0818.0,4.99,0.00,26.7,25.7,00.0,35.6,28.4,06.4,0000.0,0022.19,0004.40,0002.33
2021-12-17 00:18:00,,0818.1,4.99,0.00,26.7,25.7,00.0,35.6,28.4,06.4,0000.0,0021.32,0004.38,0002.35
2021-12-17 00:19:00,,0818.0,5.01,0.00,26.6,25.7,00.0,35.6,28.4,06.4,0000.0,0021.31,0004.44,0002.36
2021-12-17 00:20:00,,0818.0,4.99,0.00,26.6,25.7,00.0,35.6,28.4,06.4,0000.0,0021.26,0004.36,0002.37
2021-12-17 00:21:00,,0818.0,5.02,0.00,26.6,25.6,00.0,35.6,28.4,06.4,0000.0,0020.83,0004.31,0002.35
2021-12-17 00:22:00,,0818.0,4.99,0.00,26.6,25.6,00.0,35.6,28.4,06.4,0000.0,0019.51,0004.36,0002.35
2021-12-17 00:23:00,,0818.0,4.99,0.00,26.6,25.6,00.0,35.6,28.4,06.4,0000.0,0019.18,0004.41,0002.35
2021-12-17 00:24:00,,0818.0,5.01,0.00,26.6,25.6,00.0,35.6,28.4,06.4,0000.0,0018.99,0004.38,0002.36
2021-12-17 00:25:00,,0818.0,4.99,0.00,26.6,25.6,00.0,35.6,28.4,06.4,0000.0,0018.45,0004.39,0002.34
2021-12-17 00:26:00,,0818.0,5.01,0.00,26.6,25.6,00.0,35.6,28.4,06.4,0000.0,0017.66,0004.34,0002.31
2021-12-17 00:27:00,,0818.1,5.00,0.00,26.6,25.6,00.0,35.6,28.3,06.4,0000.0,0018.11,0004.39,0002.34
2021-12-17 00:28:00,,0818.0,5.01,0.00,26.6,25.6,00.0,35.6,28.4,06.4,0000.0,0018.90,0004.43,0002.35
2021-12-17 00:29:00,,0818.0,5.00,0.00,26.6,25.6,00.0,35.6,28.3,06.4,0000.0,0019.30,0004.46,0002.36
2021-12-17 00:30:00,,0818.0,4.99,0.00,26.6,25.6,00.0,35.5,28.3,06.4,0000.0,0020.78,0004.45,0002.37
2021-12-17 00:31:00,,0818.0,5.01,0.00,26.6,25.6,00.0,35.5,28.3,06.4,0000.0,0021.73,0004.46,0002.37
2021-12-17 00:32:00,,0818.1,4.98,0.00,26.6,25.5,00.0,35.5,28.3,06.4,0000.0,0022.42,0004.49,0002.40
2021-12-17 00:33:00,,0818.1,5.01,0.00,26.6,25.5,00.0,35.5,28.3,06.4,0000.0,0022.87,0004.46,0002.43
2021-12-17 00:34:00,,0818.2,5.01,0.00,26.6,25.5,00.0,35.5,28.3,06.5,0000.0,0022.69,0004.43,0002.42
2021-12-17 00:35:00,,0818.2,4.99,0.00,26.6,25.5,00.0,35.5,28.3,06.5,0000.0,0022.63,0004.46,0002.41
2021-12-17 00:36:00,,0818.2,4.99,0.00,26.5,25.5,00.0,35.5,28.3,06.5,0000.0,0022.87,0004.39,0002.41
2021-12-17 00:37:00,,0818.1,4.99,0.00,26.5,25.5,00.0,35.5,28.3,06.4,0000.0,0022.85,0004.35,0002.41
2021-12-17 00:38:00,,0818.1,5.00,0.00,26.5,25.5,00.0,35.5,28.3,06.4,0000.0,0022.67,0004.33,0002.41
2021-12-17 00:39:00,,0818.1,5.01,0.00,26.5,25.5,00.0,35.5,28.3,06.5,0000.0,0020.89,0004.29,0002.40
2021-12-17 00:40:00,,0818.2,4.99,0.00,26.5,25.5,00.0,35.5,28.3,06.6,0000.0,0019.76,0004.31,0002.39
2021-12-17 00:41:00,,0818.2,5.01,0.00,26.5,25.5,00.0,35.5,28.3,06.6,0000.0,0018.64,0004.26,0002.38
2021-12-17 00:42:00,,0818.2,5.00,0.00,26.5,25.5,00.0,35.5,28.3,06.5,0000.0,0017.73,0004.27,0002.38
2021-12-17 00:43:00,,0818.2,4.99,0.00,26.5,25.5,00.0,35.5,28.3,06.6,0000.0,0017.60,0004.25,0002.39
2021-12-17 00:44:00,,0818.2,5.01,0.00,26.5,25.5,00.0,35.4,28.3,06.6,0000.0,0018.64,0004.27,0002.39
2021-12-17 00:45:00,,0818.2,4.99,0.00,26.5,25.5,00.0,35.4,28.3,06.6,0000.0,0019.45,0004.27,0002.41
2021-12-17 00:46:00,,0818.2,5.01,0.00,26.5,25.5,00.0,35.4,28.3,06.6,0000.0,0020.36,0004.22,0002.43
2021-12-17 00:47:00,,0818.3,4.99,0.00,26.5,25.4,00.0,35.4,28.3,06.6,0000.0,0019.70,0004.27,0002.45
2021-12-17 00:48:00,,0818.2,5.02,0.00,26.5,25.4,00.0,35.4,28.2,06.6,0000.0,0019.79,0004.36,0002.47
2021-12-17 00:49:00,,0818.3,4.99,0.00,26.5,25.5,00.0,35.4,28.2,06.6,0000.0,0018.68,0004.41,0002.50
2021-12-17 00:50:00,,0818.2,5.01,0.00,26.5,25.4,00.0,35.4,28.2,06.6,0000.0,0019.63,0004.45,0002.50
2021-12-17 00:51:00,,0818.2,4.99,0.00,26.4,25.4,00.0,35.4,28.2,06.6,0000.0,0020.35,0004.46,0002.52
2021-12-17 00:52:00,,0818.2,5.00,0.00,26.4,25.4,00.0,35.4,28.2,06.6,0000.0,0021.18,0004.53,0002.56
2021-12-17 00:53:00,,0818.2,4.99,0.00,26.4,25.4,00.0,35.4,28.2,06.6,0000.0,0021.16,0004.56,0002.58
2021-12-17 00:54:00,,0818.2,5.01,0.00,26.4,25.4,00.0,35.4,28.2,06.6,0000.0,0020.75,0004.58,0002.58
2021-12-17 00:55:00,,0818.2,4.99,0.00,26.4,25.4,00.0,35.4,28.2,06.6,0000.0,0019.91,0004.62,0002.56
2021-12-17 00:56:00,,0818.1,5.01,0.00,26.4,25.4,00.0,35.4,28.2,06.6,0000.0,0019.43,0004.65,0002.58
2021-12-17 00:57:00,,0818.1,5.00,0.00,26.4,25.4,00.0,35.4,28.2,06.6,0000.0,0019.58,0004.74,0002.60
2021-12-17 00:58:00,,0818.1,4.99,0.00,26.4,25.4,00.0,35.4,28.2,06.6,0000.0,0019.03,0004.76,0002.61
2021-12-17 00:59:00,,0818.1,4.99,0.00,26.4,25.4,00.0,35.3,28.2,06.5,0000.0,0018.52,0004.75,0002.61
